Time,TemperatureF,DewpointF,PressureIn,WindDirection,WindDirectionDegrees,WindSpeedMPH,WindSpeedGustMPH,Humidity,HourlyPrecipIn,Conditions,Clouds,dailyrainin,SolarRadiationWatts/m^2,SoftwareType,DateUTC
2013-11-06 00:03:00,38.0,35.0,-100.00,WNW,303,15.0,24.0,90,0.00,,,0.58,0.000000,,2013-11-06 06:03:00,
2013-11-06 00:13:00,38.0,35.0,-100.00,WNW,303,15.0,24.0,90,0.00,,,0.58,0.000000,,2013-11-06 06:13:00,
2013-11-06 00:22:00,38.0,35.0,-100.00,WNW,303,15.0,24.0,90,0.00,,,0.58,0.000000,,2013-11-06 06:22:00,
2013-11-06 00:52:00,37.0,34.0,-100.00,NW,306,17.0,29.0,89,0.00,,,0.58,0.000000,,2013-11-06 06:52:00,
2013-11-06 01:02:00,37.0,34.0,-100.00,NW,306,17.0,29.0,89,0.00,,,0.58,0.000000,,2013-11-06 07:02:00,
2013-11-06 01:12:00,37.0,34.0,-100.00,NW,306,17.0,29.0,89,0.00,,,0.58,0.000000,,2013-11-06 07:12:00,
2013-11-06 01:21:00,37.0,34.0,-100.00,NW,306,17.0,29.0,89,0.00,,,0.58,0.000000,,2013-11-06 07:21:00,
2013-11-06 01:52:00,36.0,33.0,-100.00,NW,317,15.0,27.0,88,0.00,,,0.58,0.000000,,2013-11-06 07:52:00,
2013-11-06 02:02:00,36.0,33.0,-100.00,NW,317,15.0,27.0,88,0.00,,,0.58,0.000000,,2013-11-06 08:02:00,
2013-11-06 02:12:00,36.0,33.0,-100.00,NW,317,15.0,27.0,88,0.00,,,0.58,0.000000,,2013-11-06 08:12:00,
2013-11-06 02:22:00,36.0,33.0,-100.00,NW,317,15.0,27.0,88,0.00,,,0.58,0.000000,,2013-11-06 08:22:00,
2013-11-06 02:52:00,37.0,34.0,-100.00,NW,316,15.0,26.0,88,0.00,,,0.58,0.000000,,2013-11-06 08:52:00,
2013-11-06 03:02:00,37.0,34.0,-100.00,NW,316,15.0,26.0,88,0.00,,,0.58,0.000000,,2013-11-06 09:02:00,
2013-11-06 03:12:00,37.0,34.0,-100.00,NW,316,15.0,26.0,88,0.00,,,0.58,0.000000,,2013-11-06 09:12:00,
2013-11-06 03:22:00,37.0,34.0,-100.00,NW,316,15.0,26.0,88,0.00,,,0.58,0.000000,,2013-11-06 09:22:00,
2013-11-06 03:53:00,36.0,32.0,-100.00,NW,318,18.0,28.0,85,0.00,,,0.55,1.000000,,2013-11-06 09:53:00,
2013-11-06 04:03:00,36.0,32.0,-100.00,NW,318,18.0,28.0,85,0.00,,,0.55,1.000000,,2013-11-06 10:03:00,
2013-11-06 04:12:00,36.0,32.0,-100.00,NW,318,18.0,28.0,85,0.00,,,0.55,1.000000,,2013-11-06 10:12:00,
2013-11-06 04:23:00,36.0,32.0,-100.00,NW,318,18.0,28.0,85,0.00,,,0.55,1.000000,,2013-11-06 10:23:00,
2013-11-06 04:53:00,36.0,32.0,-100.00,NW,325,14.0,30.0,84,0.00,,,0.49,0.000000,,2013-11-06 10:53:00,
2013-11-06 05:02:00,36.0,32.0,-100.00,NW,325,14.0,30.0,84,0.00,,,0.49,0.000000,,2013-11-06 11:02:00,
2013-11-06 05:12:00,36.0,32.0,-100.00,NW,325,14.0,30.0,84,0.00,,,0.49,0.000000,,2013-11-06 11:12:00,
2013-11-06 05:22:00,36.0,32.0,-100.00,NW,325,14.0,30.0,84,0.00,,,0.49,0.000000,,2013-11-06 11:22:00,
2013-11-06 05:52:00,36.0,32.0,-100.00,NW,324,13.0,25.0,84,0.00,,,0.47,0.000000,,2013-11-06 11:52:00,
2013-11-06 06:02:00,36.0,32.0,-100.00,NW,324,13.0,25.0,84,0.00,,,0.47,0.000000,,2013-11-06 12:02:00,
2013-11-06 06:12:00,36.0,32.0,-100.00,NW,324,13.0,25.0,84,0.00,,,0.47,0.000000,,2013-11-06 12:12:00,
2013-11-06 06:22:00,36.0,32.0,-100.00,NW,324,13.0,25.0,84,0.00,,,0.47,0.000000,,2013-11-06 12:22:00,
2013-11-06 06:52:00,36.0,32.0,-100.00,NW,310,11.0,18.0,84,0.00,,,0.42,0.000000,,2013-11-06 12:52:00,
2013-11-06 07:02:00,36.0,32.0,-100.00,NW,310,11.0,18.0,84,0.00,,,0.42,0.000000,,2013-11-06 13:02:00,
2013-11-06 07:12:00,36.0,32.0,-100.00,NW,310,11.0,18.0,84,0.00,,,0.42,0.000000,,2013-11-06 13:12:00,
2013-11-06 07:22:00,36.0,32.0,-100.00,NW,310,11.0,18.0,84,0.00,,,0.42,0.000000,,2013-11-06 13:22:00,
2013-11-06 07:52:00,36.0,31.0,-100.00,NW,317,11.0,17.0,83,0.00,,,0.42,3.000000,,2013-11-06 13:52:00,
2013-11-06 08:02:00,36.0,31.0,-100.00,NW,317,11.0,17.0,83,0.00,,,0.42,3.000000,,2013-11-06 14:02:00,
2013-11-06 08:11:00,36.0,31.0,-100.00,NW,317,11.0,17.0,83,0.00,,,0.42,3.000000,,2013-11-06 14:11:00,
2013-11-06 08:22:00,36.0,31.0,-100.00,NW,317,11.0,17.0,83,0.00,,,0.42,3.000000,,2013-11-06 14:22:00,
2013-11-06 08:52:00,37.0,32.0,-100.00,NW,320,13.0,20.0,82,0.00,,,0.42,33.000000,,2013-11-06 14:52:00,
2013-11-06 09:02:00,37.0,32.0,-100.00,NW,320,13.0,20.0,82,0.00,,,0.42,33.000000,,2013-11-06 15:02:00,
2013-11-06 09:11:00,37.0,32.0,-100.00,NW,320,13.0,20.0,82,0.00,,,0.42,33.000000,,2013-11-06 15:11:00,
2013-11-06 09:22:00,37.0,32.0,-100.00,NW,320,13.0,20.0,82,0.00,,,0.42,33.000000,,2013-11-06 15:22:00,
2013-11-06 09:54:00,37.0,32.0,-100.00,NW,326,12.0,21.0,82,0.00,,,0.41,67.000000,,2013-11-06 15:54:00,
2013-11-06 10:03:00,37.0,32.0,-100.00,NW,326,12.0,21.0,82,0.00,,,0.41,67.000000,,2013-11-06 16:03:00,
2013-11-06 10:12:00,37.0,32.0,-100.00,NW,326,12.0,21.0,82,0.00,,,0.41,67.000000,,2013-11-06 16:12:00,
2013-11-06 10:23:00,37.0,32.0,-100.00,NW,326,12.0,21.0,82,0.00,,,0.41,67.000000,,2013-11-06 16:23:00,
2013-11-06 10:53:00,39.0,32.0,-100.00,NW,312,11.0,20.0,77,0.00,,,0.37,159.000000,,2013-11-06 16:53:00,
2013-11-06 11:02:00,39.0,32.0,-100.00,NW,312,11.0,20.0,77,0.00,,,0.37,159.000000,,2013-11-06 17:02:00,
2013-11-06 11:13:00,39.0,32.0,-100.00,NW,312,11.0,20.0,77,0.00,,,0.37,159.000000,,2013-11-06 17:13:00,
2013-11-06 11:23:00,39.0,32.0,-100.00,NW,312,11.0,20.0,77,0.00,,,0.37,159.000000,,2013-11-06 17:23:00,
2013-11-06 11:52:00,42.0,34.0,-100.00,WNW,297,11.0,19.0,72,0.00,,,0.36,351.000000,,2013-11-06 17:52:00,
2013-11-06 12:02:00,42.0,34.0,-100.00,WNW,297,11.0,19.0,72,0.00,,,0.36,351.000000,,2013-11-06 18:02:00,
2013-11-06 12:12:00,42.0,34.0,-100.00,WNW,297,11.0,19.0,72,0.00,,,0.36,351.000000,,2013-11-06 18:12:00,
2013-11-06 12:22:00,42.0,34.0,-100.00,WNW,297,11.0,19.0,72,0.00,,,0.36,351.000000,,2013-11-06 18:22:00,
2013-11-06 12:52:00,43.0,33.0,-100.00,WNW,298,9.0,18.0,67,0.00,,,0.36,293.000000,,2013-11-06 18:52:00,
2013-11-06 13:01:00,43.0,33.0,-100.00,WNW,298,9.0,18.0,67,0.00,,,0.36,293.000000,,2013-11-06 19:01:00,
2013-11-06 13:11:00,43.0,33.0,-100.00,WNW,298,9.0,18.0,67,0.00,,,0.36,293.000000,,2013-11-06 19:11:00,
2013-11-06 13:21:00,43.0,33.0,-100.00,WNW,298,9.0,18.0,67,0.00,,,0.36,293.000000,,2013-11-06 19:21:00,
2013-11-06 13:52:00,43.0,33.0,-100.00,WNW,287,8.0,16.0,67,0.00,,,0.32,210.000000,,2013-11-06 19:52:00,
2013-11-06 14:02:00,43.0,33.0,-100.00,WNW,287,8.0,16.0,67,0.00,,,0.32,210.000000,,2013-11-06 20:02:00,
2013-11-06 14:12:00,43.0,33.0,-100.00,WNW,287,8.0,16.0,67,0.00,,,0.32,210.000000,,2013-11-06 20:12:00,
2013-11-06 14:22:00,43.0,33.0,-100.00,WNW,287,8.0,16.0,67,0.00,,,0.32,210.000000,,2013-11-06 20:22:00,
2013-11-06 14:52:00,45.0,32.0,-100.00,WNW,302,7.0,15.0,61,0.00,,,0.21,317.000000,,2013-11-06 20:52:00,
2013-11-06 15:02:00,45.0,32.0,-100.00,WNW,302,7.0,15.0,61,0.00,,,0.21,317.000000,,2013-11-06 21:02:00,
2013-11-06 15:12:00,45.0,32.0,-100.00,WNW,302,7.0,15.0,61,0.00,,,0.21,317.000000,,2013-11-06 21:12:00,
2013-11-06 15:22:00,45.0,32.0,-100.00,WNW,302,7.0,15.0,61,0.00,,,0.21,317.000000,,2013-11-06 21:22:00,
2013-11-06 15:54:00,44.0,31.0,-100.00,West,274,9.0,14.0,59,0.00,,,0.16,256.000000,,2013-11-06 21:54:00,
2013-11-06 16:04:00,44.0,31.0,-100.00,West,274,9.0,14.0,59,0.00,,,0.16,256.000000,,2013-11-06 22:04:00,
2013-11-06 16:14:00,44.0,31.0,-100.00,West,274,9.0,14.0,59,0.00,,,0.16,256.000000,,2013-11-06 22:14:00,
2013-11-06 16:23:00,44.0,31.0,-100.00,West,274,9.0,14.0,59,0.00,,,0.16,256.000000,,2013-11-06 22:23:00,
2013-11-06 16:53:00,45.0,32.0,-100.00,NW,325,5.0,12.0,59,0.00,,,0.12,131.000000,,2013-11-06 22:53:00,
2013-11-06 17:02:00,45.0,32.0,-100.00,NW,325,5.0,12.0,59,0.00,,,0.12,131.000000,,2013-11-06 23:02:00,
2013-11-06 17:13:00,45.0,32.0,-100.00,NW,325,5.0,12.0,59,0.00,,,0.12,131.000000,,2013-11-06 23:13:00,
2013-11-06 17:22:00,45.0,32.0,-100.00,NW,325,5.0,12.0,59,0.00,,,0.12,131.000000,,2013-11-06 23:22:00,
2013-11-06 17:53:00,41.0,30.0,-100.00,WSW,242,6.0,9.0,64,0.00,,,0.05,44.000000,,2013-11-06 23:53:00,
2013-11-06 18:02:00,41.0,30.0,-100.00,WSW,242,6.0,9.0,64,0.00,,,0.05,44.000000,,2013-11-07 00:02:00,
2013-11-06 18:12:00,41.0,30.0,-100.00,WSW,242,6.0,9.0,64,0.00,,,0.05,44.000000,,2013-11-07 00:12:00,
2013-11-06 18:22:00,41.0,30.0,-100.00,WSW,242,6.0,9.0,64,0.00,,,0.05,44.000000,,2013-11-07 00:22:00,
2013-11-06 18:52:00,38.0,31.0,-100.00,WSW,237,6.0,9.0,75,0.00,,,0.04,1.000000,,2013-11-07 00:52:00,
2013-11-06 19:02:00,38.0,31.0,-100.00,WSW,237,6.0,9.0,75,0.00,,,0.04,1.000000,,2013-11-07 01:02:00,
2013-11-06 19:11:00,38.0,31.0,-100.00,WSW,237,6.0,9.0,75,0.00,,,0.04,1.000000,,2013-11-07 01:11:00,
2013-11-06 19:22:00,38.0,31.0,-100.00,WSW,237,6.0,9.0,75,0.00,,,0.04,1.000000,,2013-11-07 01:22:00,
2013-11-06 19:52:00,36.0,30.0,-100.00,WSW,251,8.0,11.0,80,0.00,,,0.04,0.000000,,2013-11-07 01:52:00,
2013-11-06 20:01:00,36.0,30.0,-100.00,WSW,251,8.0,11.0,80,0.00,,,0.04,0.000000,,2013-11-07 02:01:00,
2013-11-06 20:12:00,36.0,30.0,-100.00,WSW,251,8.0,11.0,80,0.00,,,0.04,0.000000,,2013-11-07 02:12:00,
2013-11-06 20:22:00,36.0,30.0,-100.00,WSW,251,8.0,11.0,80,0.00,,,0.04,0.000000,,2013-11-07 02:22:00,
2013-11-06 21:12:00,34.0,30.0,-100.00,SW,234,5.0,8.0,85,0.00,,,0.03,0.000000,,2013-11-07 03:12:00,
2013-11-06 21:21:00,34.0,30.0,-100.00,SW,234,5.0,8.0,85,0.00,,,0.03,0.000000,,2013-11-07 03:21:00,
2013-11-06 21:24:00,32.0,29.0,-100.00,SW,217,5.0,6.0,89,0.00,,,0.01,0.000000,,2013-11-07 03:24:00,
2013-11-06 21:55:00,32.0,29.0,-100.00,SW,217,5.0,6.0,89,0.00,,,0.01,0.000000,,2013-11-07 03:55:00,
2013-11-06 22:04:00,32.0,29.0,-100.00,SW,217,5.0,6.0,89,0.00,,,0.01,0.000000,,2013-11-07 04:04:00,
2013-11-06 22:13:00,32.0,29.0,-100.00,SW,217,5.0,6.0,89,0.00,,,0.01,0.000000,,2013-11-07 04:13:00,
2013-11-06 22:53:00,33.0,30.0,-100.00,SW,218,4.0,6.0,88,0.00,,,0.00,0.000000,,2013-11-07 04:53:00,
2013-11-06 23:03:00,33.0,30.0,-100.00,SW,218,4.0,6.0,88,0.00,,,0.00,0.000000,,2013-11-07 05:03:00,
2013-11-06 23:13:00,33.0,30.0,-100.00,SW,218,4.0,6.0,88,0.00,,,0.00,0.000000,,2013-11-07 05:13:00,
2013-11-06 23:23:00,33.0,30.0,-100.00,SW,218,4.0,6.0,88,0.00,,,0.00,0.000000,,2013-11-07 05:23:00,
2013-11-06 23:54:00,31.0,29.0,-100.00,SW,224,6.0,7.0,91,0.00,,,0.00,0.000000,,2013-11-07 05:54:00,